This is the latest recevied weather packets stored in our database for station/object N9BLE. If no packets are shown the sender has not sent any weather packets the latest 10 day(s).
| Time | Temp. | Humidity | Pressure | Rain* | Wind** | Luminosity | Snow |
|---|---|---|---|---|---|---|---|
| 1777581381 | 11.67° C | 67% | 1017.8 hPa | 0 mm | - | 117 W/m² | - |
| 1777581081 | 12.22° C | 62% | 1017.9 hPa | 0 mm | - | 77 W/m² | - |
| 1777580780 | 12.78° C | 57% | 1017.8 hPa | 0 mm | - | 52 W/m² | - |
| 1777580476 | 12.78° C | 57% | 1017.7 hPa | 0 mm | - | 62 W/m² | - |
| 1777580171 | 12.78° C | 56% | 1017.7 hPa | 0 mm | - | 67 W/m² | - |
| 1777579869 | 13.33° C | 55% | 1017.7 hPa | 0 mm | - | 65 W/m² | - |
| 1777579569 | 13.89° C | 53% | 1017.7 hPa | 0 mm | - | 163 W/m² | - |
| 1777579268 | 13.33° C | 52% | 1017.7 hPa | 0 mm | - | 307 W/m² | - |
| 1777578964 | 12.78° C | 53% | 1017.9 hPa | 0 mm | - | 490 W/m² | - |
| 1777578659 | 12.78° C | 54% | 1017.9 hPa | 0 mm | - | 185 W/m² | - |
| 1777578358 | 12.78° C | 54% | 1018 hPa | 0 mm | - | 75 W/m² | - |
| 1777578054 | 12.78° C | 51% | 1018 hPa | 0 mm | - | 67 W/m² | - |
| 1777577749 | 12.78° C | 52% | 1018.1 hPa | 0 mm | - | 92 W/m² | - |
| 1777577446 | 12.78° C | 54% | 1018.3 hPa | 0 mm | - | 81 W/m² | - |
| 1777577144 | 12.22° C | 49% | 1018.2 hPa | 0 mm | - | 69 W/m² | - |
| 1777576840 | 12.78° C | 51% | 1018.3 hPa | 0 mm | - | 77 W/m² | - |
| 1777576539 | 13.33° C | 49% | 1018.4 hPa | 0 mm | - | 105 W/m² | - |
| 1777576235 | 13.33° C | 49% | 1018.5 hPa | 0 mm | - | 146 W/m² | - |
| 1777575932 | 13.33° C | 49% | 1018.5 hPa | 0 mm | - | 159 W/m² | - |
| 1777575628 | 13.33° C | 51% | 1018.4 hPa | 0 mm | - | 165 W/m² | - |
| 1777575324 | 12.78° C | 51% | 1018.4 hPa | 0 mm | - | 194 W/m² | - |
| 1777575020 | 12.78° C | 51% | 1018.4 hPa | 0 mm | - | 98 W/m² | - |
| 1777574716 | 12.78° C | 49% | 1018.4 hPa | 0 mm | - | 101 W/m² | - |
| 1777574414 | 12.78° C | 47% | 1018.2 hPa | 0 mm | - | 118 W/m² | - |
| 1777574109 | 12.78° C | 45% | 1018.3 hPa | 0 mm | - | 110 W/m² | - |
* Rain latest hour (hover to see other rain measurements)
** Current wind speed in m/s (hover to see current wind gust speed)